SCOUT X-4 DEB, 2088

Orbit data source: Space-Track

SCOUT X-4 DEB, 2088 is space debris in LEO originally from a launch on Fri, 19 Nov 1965 UTC launched from the Wallops Island (WLPIS). Debris objects in space refer to the collection of defunct objects orbiting the Earth. Examples of debris include non-operational satellites, rocket bodies, and fragments generated from explosions, collisions, or faulty payload assembly.

Loading next visibility...
Identifier
2088, 1965-093D
Orbit
LEO
Country
Flag of USUS
Related business
Manufacturer
Unknown
Mission
Spacecraft
Bus & Motor
Unknown
Mass
Unknown
Launch date (UTC)
1965-11-19 (60 years ago)
Launch vehicle
Unknown
Launch site
Wallops Island (WLPIS)
Object type
Payload
Rocket body
Debris
Shape & HBR
Unknown shape, 0.1 m
Radar Cross Section
Small (<0.1 m²)

Expand to show TLE details & history
Last TLE update: 1 day ago

TLE from 1 day ago
0 SCOUT X-4 DEB
1 02088U 65093D   25300.34603799  .00001999  00000-0  41922-3 0  9991
2 02088  59.7156 288.2404 0075306 196.2216 163.6420 14.61462377119856
Epoch: 2025-10-27T08:18Z
TLE epoch observation values (Epoch: 2025-10-27T08:18:17.682Z)
Latitude
-0.00004°
Longitude
127.7175°
Altitude
741.079 km
Speed
7.458 km/s
True Right ascension
19h 12m 57s
True Declination
0° 00' 00"
Sunlit
Object was in daylight at epoch
Visualization orbit readout
Latitude
Unknown
Longitude
Unknown
Altitude
Unknown
Speed
Unknown
Apparent Right ascension
Unknown
Apparent Declination
Unknown
Sunlit
N/A
Visualization observer readout
Local Sidereal Time
09:20:47
Azimuth
Unknown
Elevation
Unknown
Doppler factor
Unknown
Orbital elements
Apogee altitude
740.932 km
Perigee altitude
634.511 km
Semi-major axis
7,065.859 km
Eccentricity
0.00753
Inclination
59.7156°
RAAN
288.2404°
Arg. of periapsis
196.2216°
True anomaly
163.88286°
Mean anomaly
163.642°
Eccentric anomaly
163.76265°
Mean motion
3.65423 °/min
Orbital period
98.52 mins
BSTAR
0.00041922
Loading maneuver chart data...
Computing Atmospheric mass density...
Loading historical data...
Loading historical data...
Loading historical data...
Loading historical data...
Loading historical data...
Loading historical data...
Loading historical data...
Other satellites on launch #93 in the year 1965 (1965-11-19 UTC)

Documentation

Showing up to 5 results
|